CZ-6A DEB, 54280

Orbit data source: Space-Track

CZ-6A DEB, 54280 is space debris in SSO originally from a launch on Fri, 11 Nov 2022 UTC launched from the Taiyaun Space Center, China (TSC). Debris objects in space refer to the collection of defunct objects orbiting the Earth. Examples of debris include non-operational satellites, rocket bodies, and fragments generated from explosions, collisions, or faulty payload assembly.

Loading next visibility...
Identifier
54280, 2022-151X
Orbit
SSO
Country
Flag of CNCN / PRC
Related business
Manufacturer
SAST
Mission
Spacecraft
Bus & Motor
Unknown
Mass
Unknown
Launch date (UTC)
2022-11-11 (3 years ago)
Launch vehicle
Unknown
Launch site
Taiyaun Space Center, China (TSC)
Object type
Payload
Rocket body
Debris
Shape & HBR
Unknown shape, 0.1 m
Radar Cross Section
Small (<0.1 m²)

Expand to show TLE details & history
Last TLE update: 1 day ago

TLE from 1 day ago
0 CZ-6A DEB
1 54280U 22151X   26129.58441519  .00001379  00000-0  44737-3 0  9995
2 54280  98.6070 154.2670 0082463 144.1318 216.5444 14.38574291182114
Epoch: 2026-05-09T14:01Z
TLE epoch observation values (Epoch: 2026-05-09T14:01:33.472Z)
Latitude
-0.00011°
Longitude
76.4778°
Altitude
813.648 km
Speed
7.422 km/s
True Right ascension
10h 17m 04s
True Declination
0° 00' 00"
Sunlit
Object was in daylight at epoch
Visualization orbit readout
Latitude
Unknown
Longitude
Unknown
Altitude
Unknown
Speed
Unknown
Apparent Right ascension
Unknown
Apparent Declination
Unknown
Sunlit
N/A
Visualization observer readout
Local Sidereal Time
00:22:33
Azimuth
Unknown
Elevation
Unknown
Doppler factor
Unknown
Orbital elements
Apogee altitude
819.208 km
Perigee altitude
701.475 km
Semi-major axis
7,138.478 km
Eccentricity
0.00825
Inclination
98.607°
RAAN
154.267°
Arg. of periapsis
144.1318°
True anomaly
215.98636°
Mean anomaly
216.5444°
Eccentric anomaly
216.26492°
Mean motion
3.59861 °/min
Orbital period
100.04 mins
BSTAR
0.00044737
Loading maneuver chart data...
Computing Atmospheric mass density...
Loading historical data...
Loading historical data...
Loading historical data...
Loading historical data...
Loading historical data...
Loading historical data...
Loading historical data...

Documentation

Showing up to 5 results
|